Location: Tierra del Sol
(32.6128°N, 116.3319°W)
Time: 15:47:49
(UTC-08:00)

Envisat - Pass Details

Date: 14 October 2017
Orbit: 764 x 766 km, 98.2° (Epoch: 15 December)

Event Time Altitude Azimuth Distance (km) Brightness Sun altitude
Exits shadow 20:40:31 20° 352° (N) 1,720 4.9 -31.7°
Drops below altitude 10° 20:42:01 10° 350° (N) 2,308 5.7 -32.0°
Sets 20:44:20 0° 350° (N) 3,238 6.5 -32.5°
